Location: Peterborough
(44.3091°N, 78.3197°W)
Time: 22:57:39
(UTC-04:00)

Vanguard 1 - Pass Details

Date: 18 April 2024
Orbit: 652 x 3825 km, 34.2° (Epoch: 29 May)

Event Time Altitude Azimuth Distance (km) Brightness Sun altitude
Rises 04:39:29 0° 217° (SW) 7,955 - -17.5°
Reaches altitude 10° 04:45:50 10° 210° (SSW) 6,848 - -16.6°
Exits shadow 04:46:26 11° 209° (SSW) 6,743 13.8 -16.5°
Maximum altitude 05:04:12 36° 154° (SSE) 4,149 13.2 -13.8°
Drops below altitude 10° 05:16:41 10° 95° (E) 4,729 14.5 -11.9°
Sets 05:20:03 0° 86° (E) 5,346 15.2 -11.4°
